Temperature
8 9 9 9 9 9 10 10 10 10 9 9 9 10 10 9 8 9 9 9 8 8 8 8 8 9 9 9 9 9 9 10 10 10 10 10 10 10 10 10 10 10 10 10
8 8 8 8 8 8 9 9 9 9 8 8 9 9 10 10 9 9 8 8 8 8 7 8 8 8 8 8 9 9 9 9 9 10 10 10 10 9 10 9 9 9 10 10
8 8 7 7 8 8 8 8 8 8 8 8 8 10 10 10 9 8 8 8 7 7 7 7 7 7 8 8 8 8 9 9 9 9 9 9 9 9 9 9 9 9 9 9
7 7 7 7 7 7 8 8 8 7 8 9 8 9 11 10 9 9 8 7 7 6 6 6 6 7 7 8 8 8 8 8 9 9 9 9 9 9 9 9 9 9 9 9
6 6 6 6 7 7 7 7 7 7 7 7 8 7 10 9 9 9 9 7 6 6 6 6 6 6 7 7 7 8 8 8 8 8 8 8 8 8 8 8 8 8 8 8
6 6 6 6 6 6 6 6 6 6 7 7 8 8 9 10 9 9 8 7 6 5 5 6 6 6 6 6 7 7 7 7 8 8 8 8 8 8 8 8 8 8 8 8
6 6 5 5 6 6 6 6 7 7 7 8 7 7 9 9 9 8 8 6 5 5 5 5 5 5 5 6 6 6 7 7 7 7 7 7 7 7 7 7 7 7 7 7
6 6 6 5 6 5 6 6 7 7 8 8 6 7 9 8 7 6 6 5 5 4 4 5 5 5 5 5 6 6 6 6 6 7 7 7 6 7 6 7 7 7 7 7
6 6 5 5 5 6 5 6 6 6 5 6 8 8 8 7 7 6 5 5 4 4 4 4 4 4 4 5 5 6 6 6 6 6 6 6 6 6 6 6 6 6 6 6
5 4 5 4 5 5 5 5 5 5 6 7 8 8 8 7 7 6 5 5 4 4 4 4 4 4 4 4 5 5 5 5 6 6 6 6 6 6 6 6 6 6 6 6
4 3 4 4 4 5 4 4 4 5 5 6 7 8 8 7 7 6 5 4 4 3 3 3 3 3 3 4 4 5 5 5 5 5 5 5 5 5 5 5 5 5 5 5
3 3 4 4 4 4 4 5 4 5 4 5 6 8 7 6 6 5 5 4 3 3 3 3 3 3 3 3 3 4 4 4 4 4 4 4 4 4 5 5 5 5 5 5
2 2 3 4 4 3 3 3 3 3 4 4 5 7 6 5 5 4 4 3 3 2 2 2 2 2 3 3 3 3 3 4 4 4 4 4 4 4 4 4 4 4 4 4
2 2 3 4 5 3 2 3 3 3 3 4 5 6 6 6 5 4 3 3 2 2 2 2 2 2 2 2 2 3 3 3 3 3 3 3 3 3 3 3 3 3 3 3
2 2 1 2 2 2 2 2 2 2 3 4 5 5 5 5 4 4 3 2 2 1 1 2 1 2 2 2 2 2 2 3 3 3 3 3 3 3 3 3 3 3 3 3
1 1 0 1 2 1 1 2 2 2 3 3 3 4 5 4 3 3 2 2 1 1 1 1 1 1 1 1 1 2 2 2 2 2 2 2 2 2 2 2 2 2 2 2
0 -0 1 2 1 1 2 2 2 2 2 3 3 4 4 3 3 2 2 1 1 1 0 0 1 1 1 1 1 1 1 1 2 2 2 2 2 2 2 2 2 2 2 2
-1 -0 -0 1 0 1 4 3 2 2 2 2 2 3 3 3 2 1 1 1 0 0 0 0 0 0 0 0 1 1 1 1 1 1 1 1 1 1 1 1 1 1 1 1
-1 -0 0 0 1 2 3 2 1 1 2 2 2 2 2 1 1 1 1 1 0 0 -0 -0 0 0 0 0 0 0 1 1 1 1 1 1 1 1 1 1 1 1 1 1
-2 -1 -0 -0 1 2 3 2 1 1 2 2 1 1 1 1 2 3 1 0 -0 -0 -0 -0 -0 -0 -0 -0 -0 0 0 0 0 0 0 0 0 0 0 0 0 0 0 1
-1 -1 -1 -0 1 2 2 0 1 2 2 1 1 1 0 1 1 1 0 -0 -0 -1 -1 -0 -0 -0 -0 -0 -0 -0 0 0 -0 -0 -0 0 0 0 0 -0 -0 -0 -0 -0
-0 -0 -1 -0 0 1 1 0 1 2 1 0 0 -0 -0 -0 -1 -0 -0 -0 -1 -1 -1 -1 -1 -1 -1 -1 -1 -0 -0 -0 -0 -0 -0 -0 -0 -0 -0 -1 -1 -1 -1 -1
-1 -0 0 0 2 1 -0 0 0 0 -0 -0 -0 -1 -1 -1 -1 -1 -1 -1 -1 -2 -1 -1 -1 -1 -1 -1 -1 -1 -1 -1 -1 -1 -1 -1 -1 -1 -1 -1 -1 -1 -1 -1
-1 -2 -1 -1 0 -0 -1 -1 -1 -0 -1 -1 -1 -1 -1 -2 -2 -2 -2 -2 -2 -2 -2 -2 -2 -2 -1 -2 -2 -1 -1 -1 -1 -1 -1 -1 -1 -1 -1 -1 -1 -1 -1 -2
-1 -2 -2 -2 -1 -1 -1 -1 -1 -1 -1 -1 -1 -1 -2 -2 -2 -2 -2 -2 -2 -2 -2 -2 -2 -2 -2 -2 -2 -2 -2 -2 -2 -2 -2 -2 -2 -2 -2 -2 -2 -2 -2 -2
-2 -2 -1 -0 -0 -1 -0 -1 -1 -1 -1 -1 -2 -2 -2 -2 -2 -2 -3 -3 -3 -3 -3 -3 -3 -3 -2 -2 -2 -2 -2 -2 -2 -2 -2 -2 -2 -2 -2 -2 -2 -2 -2 -2
Wind_Speed
1 2 4 6 7 6 5 7 9 7 3 5 10 12 11 7 6 7 7 7 6 6 5 4 4 4 4 4 4 4 4 4 4 4 4 5 4 4 4 3 5 6 7 7
2 5 6 5 5 6 7 8 8 6 4 6 8 12 11 8 9 8 8 7 7 5 4 4 4 4 4 3 4 4 4 4 5 4 4 4 4 4 4 3 4 5 6 7
5 3 4 4 5 6 8 9 9 7 5 5 7 9 8 6 6 7 7 7 7 6 5 4 4 4 3 3 4 4 4 4 5 5 4 4 4 3 3 4 4 5 6 6
4 4 4 5 6 7 8 7 8 7 6 4 4 7 6 5 5 6 6 5 5 5 4 4 4 3 4 3 3 3 4 4 4 5 5 7 6 5 4 4 4 5 5 6
3 4 4 6 6 6 6 4 6 7 6 6 5 6 6 3 6 6 4 4 4 4 4 4 4 3 3 2 2 2 3 3 4 5 6 7 6 4 3 4 4 4 3 4
4 3 4 5 5 4 2 1 1 3 4 7 8 8 7 5 6 5 4 4 4 4 4 3 3 2 2 1 1 1 2 2 3 4 5 6 6 6 5 5 4 3 3 2
3 3 3 2 2 2 1 2 2 4 5 6 3 6 8 5 5 5 5 4 4 3 3 3 2 2 2 1 1 1 2 2 3 4 4 5 6 6 6 6 5 4 3 2
4 4 3 3 5 4 5 5 5 5 6 4 3 7 5 3 4 4 4 4 3 3 3 3 3 2 2 2 1 1 2 3 3 3 4 4 5 4 4 5 4 4 3 3
4 4 2 4 3 4 4 5 4 3 3 5 6 6 6 3 3 3 4 3 3 3 3 2 2 2 2 2 2 2 2 2 3 3 3 4 4 4 4 4 3 3 2 2
3 4 4 2 2 3 4 3 3 4 4 6 7 7 5 4 4 3 3 3 3 3 3 3 2 2 2 2 1 1 2 1 2 2 2 2 3 3 4 3 3 3 2 2
3 3 3 3 5 6 4 4 4 4 4 5 6 5 2 4 3 3 3 3 3 3 3 3 2 2 2 2 1 0 0 1 1 1 2 2 3 3 3 3 3 2 2 2
2 2 4 5 3 4 6 7 7 5 5 5 6 6 1 2 3 3 4 3 3 4 3 3 3 2 2 1 1 1 1 1 1 1 1 2 3 3 3 3 3 3 2 2
2 2 3 3 3 3 4 5 7 5 4 6 8 7 0 2 4 5 5 4 4 4 4 3 3 3 2 1 1 1 1 1 1 1 1 2 2 2 2 2 2 2 2 2
1 3 6 8 5 3 6 8 8 8 7 8 11 13 9 8 8 7 7 6 5 5 4 4 3 3 3 2 1 1 1 0 1 1 1 1 1 1 2 2 2 2 3 3
2 4 5 9 9 7 9 10 10 12 13 11 12 14 14 11 9 8 7 5 5 5 5 5 4 4 3 2 2 1 1 1 0 1 1 0 0 1 1 2 2 2 2 3
2 3 3 7 7 7 10 12 12 13 14 15 15 16 12 9 8 7 6 5 5 6 6 5 5 4 4 3 3 2 2 1 1 0 0 0 1 1 1 2 2 2 2 3
4 3 3 6 5 6 9 10 11 10 11 11 13 13 9 8 8 7 6 6 6 6 6 6 5 5 5 4 4 3 3 2 1 1 1 1 1 1 2 2 2 2 3 3
5 4 3 4 3 8 5 2 7 10 11 11 11 11 9 8 8 7 6 5 6 7 6 6 6 6 5 5 4 3 3 3 2 2 2 2 2 2 3 3 3 3 3 3
7 5 3 3 6 9 7 4 4 6 8 8 10 10 8 7 6 6 4 4 6 7 6 6 6 6 5 4 4 3 3 3 3 3 3 4 4 3 3 4 4 4 4 4
3 4 4 5 6 7 4 1 2 3 6 4 6 8 7 5 6 6 4 6 7 6 6 5 5 5 4 4 3 4 4 4 4 4 4 4 4 4 4 4 4 4 4 4
4 5 7 8 8 8 5 1 3 5 4 4 5 6 7 8 8 7 7 7 6 6 6 5 5 4 4 4 3 4 4 5 5 4 4 5 5 5 5 5 4 4 4 4
7 6 7 6 8 8 2 3 5 5 5 5 6 7 8 9 9 8 7 6 6 6 6 5 4 4 4 4 4 4 5 5 4 4 4 5 5 4 4 4 4 4 4 4
7 6 5 7 7 4 4 5 5 5 6 7 7 8 7 8 8 8 7 6 6 6 6 5 4 5 4 4 4 5 5 4 4 4 5 4 4 4 4 4 4 4 4 4
6 4 5 7 9 8 8 8 8 8 9 9 8 8 7 8 8 7 6 6 6 6 6 5 5 5 5 4 4 4 4 4 4 4 4 4 4 4 4 4 4 4 4 4
6 5 6 8 9 8 9 9 9 9 9 8 7 7 8 8 8 7 7 6 6 6 6 5 5 5 5 5 4 4 4 3 4 4 4 4 4 4 4 4 4 5 5 5
7 8 8 9 8 7 8 7 8 8 8 8 7 8 7 7 7 6 6 6 6 5 5 5 5 5 5 4 4 4 4 4 4 4 4 4 3 3 3 3 3 4 5 6
Wind_Direction
181 211 226 227 230 255 259 254 258 259 270 261 259 269 277 276 264 258 258 257 257 256 261 271 274 265 246 229 226 222 210 207 199 193 192 192 193 188 185 192 185 181 180 181
205 240 252 254 246 248 252 256 264 271 279 265 273 274 274 261 252 253 257 258 256 259 266 269 270 271 254 238 227 223 215 205 202 199 197 200 188 185 180 177 180 181 182 183
230 272 258 237 239 242 247 251 258 269 292 266 284 278 259 255 254 259 259 258 259 259 266 276 271 271 272 250 236 226 218 211 205 195 184 175 174 175 180 183 187 185 187 182
244 264 255 240 248 249 255 259 255 259 265 263 264 279 269 248 255 261 262 258 260 263 268 279 280 277 275 266 250 230 219 211 202 191 188 183 187 189 192 187 187 182 187 183
246 256 251 249 260 254 260 272 249 247 248 264 246 254 273 262 262 267 264 265 275 274 271 272 274 271 278 278 259 243 217 208 197 191 192 193 192 189 178 176 174 176 179 184
265 270 261 262 271 252 256 234 232 238 238 250 243 235 271 250 258 270 275 280 290 288 279 271 271 270 283 283 265 240 216 205 194 187 189 192 187 183 177 177 175 178 179 182
266 258 259 263 275 239 240 220 222 219 226 246 222 232 258 272 270 271 283 291 293 292 285 280 279 270 276 276 273 229 215 201 198 190 186 190 190 186 186 182 180 182 186 194
241 263 238 238 236 228 219 224 234 246 250 251 218 238 255 306 309 304 300 301 306 297 289 284 282 274 268 260 251 235 211 196 198 196 191 191 192 188 190 191 184 189 192 192
234 260 292 260 253 223 206 221 247 258 272 261 244 256 271 274 299 315 320 322 321 312 307 307 305 297 295 278 262 234 221 203 197 200 192 186 184 183 187 188 185 183 181 179
234 267 280 275 221 227 244 202 196 220 246 254 257 256 254 251 272 303 321 325 328 331 330 333 324 313 312 303 274 246 227 213 195 186 187 182 176 181 181 176 177 175 168 167
240 239 255 227 220 218 194 204 216 225 247 253 262 261 257 248 271 279 297 312 322 329 327 328 328 316 315 326 330 269 203 153 148 158 165 166 167 170 165 165 170 163 152 162
222 236 253 245 249 269 229 221 209 224 232 237 258 265 53 269 307 311 316 321 326 328 321 323 326 329 336 353 359 29 72 104 119 142 148 150 160 159 155 154 159 155 150 161
187 203 263 260 222 211 234 228 221 229 239 235 243 259 125 309 320 326 323 321 323 326 327 328 331 327 334 348 357 11 59 85 100 120 125 128 149 156 162 158 157 156 160 174
215 215 232 253 279 253 252 246 228 217 233 244 247 266 279 294 306 311 313 317 321 321 320 322 323 320 320 325 332 335 3 47 81 92 94 105 138 163 171 164 166 174 181 189
209 239 247 269 276 262 257 253 239 230 235 244 258 264 276 288 295 298 297 300 306 308 309 306 307 309 308 310 317 316 320 353 67 104 90 62 310 205 168 172 179 185 194 201
216 235 251 270 266 263 260 259 247 242 244 248 261 269 278 288 291 292 292 291 295 297 298 297 297 297 296 298 296 291 293 288 273 204 234 264 268 229 197 192 189 191 204 209
203 196 234 263 286 279 261 250 236 238 239 239 250 263 284 289 291 289 285 283 292 297 295 292 287 282 282 279 271 260 259 257 245 241 252 256 246 242 223 209 199 207 217 216
200 201 226 259 260 246 264 272 236 237 248 242 251 268 277 282 290 288 275 276 292 300 297 294 290 284 281 274 267 259 247 241 235 237 246 252 244 243 236 221 217 222 224 224
211 197 212 230 251 268 277 262 228 236 262 255 253 268 287 302 295 279 271 280 291 292 293 293 291 282 274 266 259 245 237 236 236 240 244 246 239 238 237 232 231 232 229 231
187 203 215 229 249 255 279 303 223 230 266 270 260 272 286 295 281 291 311 298 299 298 295 293 292 285 272 267 251 232 235 239 242 244 245 243 237 234 236 238 238 236 231 233
185 203 219 232 248 263 277 240 184 233 282 318 285 277 274 273 279 298 300 295 292 295 294 294 288 282 274 268 245 233 238 246 254 249 241 238 235 235 236 238 239 233 231 231
206 207 214 217 234 253 186 174 217 267 308 298 294 288 278 278 288 292 294 294 295 297 294 292 286 285 284 269 248 245 249 258 259 246 236 236 237 238 234 233 234 231 227 228
221 221 222 220 239 286 219 236 259 278 282 286 288 290 284 280 281 287 290 291 292 292 288 286 280 281 285 274 255 250 256 259 252 242 236 238 241 241 235 232 232 231 228 229
236 237 237 254 258 265 264 267 271 275 278 282 282 282 277 274 277 279 281 284 287 287 284 282 277 275 281 282 272 260 258 255 243 238 239 239 237 240 238 234 230 230 229 231
239 214 234 254 269 283 269 262 271 280 283 284 285 282 276 273 272 271 274 277 278 281 282 276 272 272 277 280 275 271 261 244 240 241 239 238 238 240 240 240 238 237 239 239
225 219 226 247 257 260 277 285 284 280 280 280 285 288 285 273 267 269 272 274 276 277 278 273 272 270 273 273 272 270 263 244 237 238 239 238 235 235 236 240 249 251 248 255
Height
1504 1503 1500 1499 1500 1498 1496 1495 1492 1492 1496 1497 1492 1488 1487 1488 1488 1487 1486 1486 1486 1486 1486 1486 1487 1487 1487 1487 1487 1488 1489 1490 1492 1493 1494 1496 1498 1499 1501 1503 1505 1507 1509 1511
1502 1501 1501 1501 1500 1500 1498 1495 1493 1493 1496 1495 1490 1486 1484 1484 1484 1483 1483 1483 1483 1483 1483 1483 1483 1483 1483 1483 1484 1485 1486 1487 1489 1490 1491 1493 1495 1496 1498 1500 1502 1504 1505 1507
1499 1501 1501 1500 1499 1498 1496 1495 1493 1493 1494 1493 1491 1480 1477 1479 1480 1480 1480 1480 1480 1480 1480 1480 1479 1479 1480 1480 1481 1482 1483 1484 1486 1487 1488 1490 1492 1493 1495 1497 1498 1500 1502 1504
1501 1501 1501 1498 1497 1496 1492 1494 1495 1494 1492 1487 1489 1479 1470 1473 1476 1476 1476 1477 1477 1477 1477 1477 1476 1476 1477 1477 1478 1479 1480 1481 1482 1483 1485 1486 1488 1489 1491 1493 1495 1497 1499 1501
1499 1500 1499 1497 1496 1497 1494 1495 1494 1494 1492 1490 1488 1487 1470 1473 1472 1472 1473 1474 1474 1474 1474 1474 1473 1474 1474 1475 1475 1476 1477 1478 1479 1480 1481 1483 1485 1487 1489 1490 1492 1494 1496 1498
1500 1501 1500 1498 1497 1497 1496 1495 1494 1493 1491 1489 1481 1482 1469 1468 1469 1469 1471 1472 1472 1472 1472 1471 1471 1472 1472 1472 1473 1473 1474 1475 1476 1477 1479 1480 1482 1484 1486 1487 1489 1490 1492 1494
1497 1497 1498 1498 1496 1496 1495 1492 1488 1486 1484 1476 1479 1479 1470 1466 1468 1469 1470 1470 1470 1470 1469 1469 1469 1469 1469 1469 1470 1471 1471 1473 1474 1475 1476 1478 1479 1481 1482 1484 1485 1487 1488 1490
1494 1492 1494 1495 1494 1493 1493 1491 1487 1481 1473 1470 1481 1475 1466 1469 1470 1469 1469 1469 1468 1468 1468 1467 1467 1467 1467 1467 1467 1468 1469 1470 1471 1472 1474 1475 1477 1478 1480 1481 1482 1484 1485 1486
1493 1491 1494 1494 1494 1493 1491 1490 1490 1488 1487 1482 1471 1469 1467 1468 1468 1468 1468 1467 1467 1466 1466 1465 1465 1465 1465 1465 1465 1466 1466 1467 1469 1470 1471 1472 1474 1475 1477 1478 1479 1481 1482 1484
1497 1496 1494 1495 1494 1494 1492 1490 1491 1488 1482 1472 1466 1465 1461 1463 1464 1465 1466 1465 1465 1465 1464 1464 1463 1463 1463 1463 1463 1464 1464 1465 1466 1467 1468 1470 1471 1473 1474 1476 1477 1478 1480 1481
1498 1497 1494 1493 1491 1488 1492 1492 1489 1486 1484 1475 1466 1460 1459 1462 1463 1464 1465 1465 1465 1464 1463 1462 1462 1462 1461 1461 1461 1461 1462 1463 1463 1465 1466 1467 1469 1470 1471 1473 1474 1475 1477 1478
1497 1495 1490 1489 1490 1491 1488 1487 1487 1485 1484 1481 1472 1463 1462 1463 1464 1464 1464 1464 1464 1463 1463 1462 1461 1460 1460 1459 1459 1459 1460 1461 1461 1462 1463 1465 1466 1468 1469 1470 1472 1473 1474 1476
1496 1496 1490 1484 1489 1492 1489 1487 1488 1488 1484 1479 1472 1463 1463 1464 1464 1464 1464 1463 1463 1462 1461 1460 1459 1459 1458 1458 1458 1458 1458 1459 1460 1461 1462 1463 1464 1465 1467 1468 1469 1471 1472 1473
1494 1494 1490 1482 1477 1484 1486 1485 1486 1486 1482 1476 1470 1462 1460 1462 1463 1464 1464 1463 1462 1461 1460 1459 1458 1457 1457 1457 1457 1457 1457 1458 1458 1459 1460 1461 1462 1464 1465 1466 1467 1468 1470 1471
1493 1492 1492 1488 1486 1486 1484 1482 1482 1482 1477 1473 1464 1463 1460 1461 1462 1462 1462 1461 1460 1459 1458 1457 1456 1456 1455 1455 1455 1455 1456 1456 1457 1457 1458 1459 1461 1462 1463 1464 1465 1466 1467 1468
1492 1492 1493 1489 1485 1485 1482 1477 1476 1475 1474 1470 1467 1463 1460 1461 1461 1460 1460 1459 1458 1457 1456 1456 1455 1454 1454 1453 1453 1454 1454 1455 1456 1456 1457 1458 1459 1460 1461 1462 1463 1463 1464 1465
1491 1492 1490 1481 1485 1483 1474 1469 1470 1468 1466 1466 1463 1459 1459 1459 1458 1458 1457 1457 1456 1455 1454 1453 1453 1453 1452 1452 1452 1452 1452 1453 1454 1454 1455 1456 1456 1457 1458 1459 1460 1461 1461 1462
1489 1489 1489 1484 1485 1478 1462 1465 1464 1464 1462 1462 1460 1458 1458 1458 1456 1455 1455 1454 1453 1452 1451 1451 1450 1450 1450 1450 1450 1450 1450 1451 1452 1452 1452 1453 1454 1455 1456 1456 1457 1457 1458 1459
1486 1486 1485 1483 1475 1464 1461 1463 1464 1463 1459 1458 1457 1456 1457 1456 1454 1452 1452 1451 1451 1450 1449 1448 1447 1447 1446 1446 1447 1447 1447 1448 1449 1449 1449 1450 1451 1452 1452 1453 1453 1454 1455 1455
1485 1485 1484 1481 1474 1465 1457 1461 1462 1463 1457 1455 1455 1454 1455 1454 1451 1448 1449 1448 1447 1447 1446 1445 1444 1444 1443 1443 1443 1444 1444 1445 1445 1446 1446 1447 1448 1448 1449 1449 1450 1450 1451 1451
1482 1482 1480 1476 1471 1459 1459 1461 1462 1460 1453 1453 1452 1452 1452 1451 1450 1448 1446 1445 1444 1443 1442 1442 1441 1440 1440 1440 1440 1441 1441 1442 1442 1442 1443 1443 1444 1444 1445 1445 1446 1446 1447 1447
1471 1471 1473 1472 1469 1460 1458 1459 1458 1453 1452 1452 1451 1450 1449 1448 1446 1444 1443 1442 1441 1440 1439 1438 1437 1437 1437 1437 1437 1437 1437 1438 1438 1438 1439 1439 1440 1440 1441 1441 1441 1442 1443 1443
1468 1465 1462 1462 1457 1454 1455 1454 1453 1452 1451 1449 1448 1447 1446 1444 1443 1441 1440 1439 1438 1437 1436 1435 1434 1434 1434 1434 1434 1433 1433 1434 1434 1434 1434 1435 1435 1436 1436 1437 1437 1437 1438 1438
1463 1464 1463 1460 1453 1452 1452 1450 1450 1449 1448 1446 1445 1444 1442 1441 1439 1438 1437 1436 1435 1433 1433 1432 1431 1430 1430 1430 1430 1430 1430 1430 1430 1430 1430 1430 1430 1431 1432 1432 1433 1433 1433 1434
1456 1459 1458 1455 1450 1449 1447 1446 1446 1445 1443 1442 1441 1440 1438 1437 1435 1434 1433 1432 1431 1430 1429 1428 1427 1427 1426 1426 1426 1426 1426 1426 1426 1426 1426 1426 1426 1427 1427 1427 1428 1428 1429 1429
1452 1452 1451 1446 1445 1445 1443 1442 1442 1440 1439 1438 1437 1435 1434 1433 1432 1431 1429 1429 1428 1427 1426 1425 1424 1423 1423 1423 1422 1422 1422 1422 1422 1422 1422 1422 1422 1423 1423 1423 1423 1424 1424 1425